Weather in Abzanovo

Russia / Republic of Bashkortostan     51°51′02″N   56°45′40″E
temp.,
°C
wind,
m/s
gust,
m/s
humid.,
%
clouds,
%
prec.,
mm/h
press.,
hPa
HPBL,
m
2 march, tue
tue223:00−18w2210097 0.3 102021
02:00−21w22100100 0.0 102120
05:00−22w12100100 0.1 102120
08:00−23sw12100100 0.1 102120
11:00−20sw2498100 0.1 1021251
14:00−16ssw4696100 0.1 1018333
17:00−13ssw61094100 0.1 1016463
20:00−11ssw61395100 0.3 1014524
3 march, wed
wed323:00−7sw71495100 1.5 1012736
02:00−5sw81496100 1.9 1008780
05:00−5sw71496100 4.0 1007757
08:00−3sw71396100 2.1 1005716
11:00−2sw71297100 3.9 1005766
14:00−1sw71099100 1.5 1005761
17:00−1wsw5998100 2.9 1004626
20:00−2wsw3798100 1.3 1004326
4 march, thu
thu423:00−4w2698100 1.9 1005172
02:00−6wnw239799 0.4 100598
05:00−11w229897 0.6 100721
08:00−13w239799 0.1 100940
11:00−11w4795100 0.4 1012346
14:00−9w5894100 0.2 1012546
17:00−8wsw5894100 0.3 1014521
20:00−11sw41196100 0.1 1015371
5 march, fri
fri523:00−7sw61395100 0.6 1015791
02:00−4sw81495100 0.7 1013978
05:00−3sw91693100 1.3 1012876
08:00−6sw8179198 0.1 1013608
11:00−4sw9168998 0.1 1014767
14:00−2sw10168897 0.0 1013928
17:00−2sw10179299 0.1 1014934
20:00−2sw91697100 1.4 1014869
6 march, sat
sat623:00−2sw81496100 2.4 1015731
02:00−2sw71396100 0.4 1014536
05:00−3sw61297100 1.1 1015484
08:00−3ssw51197100 0.6 1014389
11:00−2ssw81497100 1.8 1012577
14:000ssw91692100 1.4 1011848
17:00+1sw91691100 1.4 10101046
20:000sw91691100 0.3 1008908